Location: Hradec Kralove
(50.2170°N, 15.8330°E)
Time: 01:18:14
(UTC+02:00)

AO-73 - Pass Details

Date: 17 September 2024
Orbit: 549 x 616 km, 97.7° (Epoch: 04 October)

Event Time Altitude Azimuth Distance (km) Brightness Sun altitude
Rises 03:04:35 0° 27° (NNE) 2,813 ? -30.4°
Reaches altitude 10° 03:07:23 10° 47° (NE) 1,893 ? -30.1°
Maximum altitude 03:10:10 18° 90° (E) 1,448 ? -29.8°
Enters shadow 03:10:37 17° 99° (E) 1,458 ? -29.7°
